Location: Newark
(45.9456°N, 15.4064°E)
Time: 19:07:03
(UTC+00:00)

X-37B - Visible Passes

Search period start: 28 September 2020 00:00
Search period end: 08 October 2020 00:00
Orbit: 386 x 387 km, 45.0° (Epoch: 18 September)

Date Brightness Start Highest point End Pass type
(mag) Time Alt. Az. Time Alt. Az. Time Alt. Az.
02 Oct 2.7 17:36:45 10° S 17:38:17 13° SE 17:38:37 13° SE visible
03 Oct 1.9 18:13:03 10° SW 18:15:15 28° S 18:15:15 28° S visible
04 Oct 2.2 17:15:03 10° SSW 17:17:30 21° SSE 17:19:29 13° ESE visible
04 Oct 3.0 18:50:38 10° WSW 18:51:46 20° WSW 18:51:46 20° WSW visible
05 Oct 1.0 17:52:12 10° WSW 17:55:15 45° SSE 17:55:54 38° SE visible
06 Oct 1.7 16:53:56 10° SW 16:56:47 31° SSE 16:59:39 10° E visible
06 Oct 1.7 18:30:01 10° W 18:32:15 41° WSW 18:32:15 41° WSW visible
07 Oct 0.7 17:31:31 10° WSW 17:34:39 61° SSE 17:36:16 25° E visible
07 Oct 3.8 19:08:02 10° W 19:08:32 14° W 19:08:32 14° W visible
